Location: Bergnershof
(48.9468°N, 10.9431°E)
Time: 09:04:44
(UTC+00:00)

Cosmos 1844 Rocket - Visible Passes

Search period start: 16 June 2021 00:00
Search period end: 26 June 2021 00:00
Orbit: 823 x 845 km, 71.0° (Epoch: 15 June)

Date Brightness Start Highest point End Pass type
(mag) Time Alt. Az. Time Alt. Az. Time Alt. Az.
16 Jun 2.8 20:36:53 10° NNW 20:42:36 80° ENE 20:47:39 13° SSE visible
16 Jun 4.6 22:22:00 10° WNW 22:25:49 19° W 22:29:18 11° SW visible
17 Jun 2.8 20:19:39 10° NNW 20:25:22 74° ENE 20:30:53 11° SE visible
17 Jun 4.5 22:04:36 10° NW 22:08:39 20° W 22:12:33 10° SW visible
18 Jun 2.9 20:02:26 10° NNW 20:08:08 69° ENE 20:13:46 10° SE visible
18 Jun 4.5 21:47:13 10° NW 21:51:28 22° W 21:55:44 10° SSW visible
19 Jun 4.4 21:29:51 10° NW 21:34:19 24° WSW 21:38:45 10° SSW visible
20 Jun 4.3 21:12:31 10° NW 21:17:08 26° WSW 21:21:44 10° SSW visible
21 Jun 4.2 20:55:11 10° NW 20:59:57 28° WSW 21:04:43 10° SSW visible
22 Jun 4.2 20:37:52 10° NW 20:42:47 31° WSW 20:47:40 10° SSW visible
23 Jun 4.1 20:20:33 10° NW 20:25:35 34° WSW 20:30:36 10° SSW visible
24 Jun 4.0 20:03:15 10° NW 20:08:24 36° WSW 20:13:31 10° S visible
